Regional Weather Roundup
Issued by NWS

Home | Current Version | Previous Version | Graphics & Text | Print | Product List | Glossary On
Versions: 1 2 3 4 5 6 7 8 9 10 11 12 13 14 15 16 17 18 19 20 21 22 23 24 25 26 27 28 29 30 31 32 33 34 35 36 37 38 39 40 41 42 43 44 45 46 47 48 49 50
000
ASUS43 KOAX 291702
RWRNE

WEATHER ROUNDUP FOR NEBRASKA
NATIONAL WEATHER SERVICE OMAHA NE
1200 PM CDT SAT AUG 29 2015

NOTES: SATELLITE DATA IS BEING USED TO AUGMENT CLOUD COVER ABOVE
       12000 FEET.
       "FAIR" INDICATES FEW OR NO CLOUDS BELOW 12,000 FEET WITH NO
       SIGNIFICANT WEATHER AND/OR OBSTRUCTIONS TO VISIBILITY.

  * THESE STATIONS DO NOT REPORT WEATHER SUCH AS RAIN...SNOW OR FOG.

NEZ001>004-019>022-054>056-291800-
NEBRASKA PANHANDLE

CITY           SKY/WX    TMP DP  RH WIND       PRES   REMARKS
SCOTTSBLUFF    SUNNY     77  54  44 E7        30.17S
ALLIANCE       SUNNY     86  45  23 SW9       30.16S
CHADRON        SUNNY     86  50  28 S7        30.10F
KIMBALL        SUNNY     83  40  22 SW9       30.22F
SIDNEY         SUNNY     86  43  22 SW9       30.21F
$$

NEZ057>060-069>072-079>082-291800-
SOUTHWEST NEBRASKA

CITY           SKY/WX    TMP DP  RH WIND       PRES   REMARKS
NORTH PLATTE   MOSUNNY   79  63  57 W5        30.14F
IMPERIAL       SUNNY     84  58  40 SW6       30.17F
MCCOOK         SUNNY     82  62  50 CALM      30.14F
$$

NEZ005>010-023>029-035>040-094-291800-
NORTH CENTRAL NEBRASKA

CITY           SKY/WX    TMP DP  RH WIND       PRES   REMARKS
VALENTINE      PTSUNNY   77  60  55 SW7       30.09S
AINSWORTH      MOSUNNY   79  64  60 SW3       30.10F
BROKEN BOW     MOSUNNY   78  66  66 VRB3      30.13S
O`NEILL        SUNNY     76  67  71 S6        30.10S
ORD            MOSUNNY   77  64  64 CALM      30.10F
$$

NEZ041-046>049-061>064-073>077-083>087-291800-
SOUTH CENTRAL NEBRASKA

CITY           SKY/WX    TMP DP  RH WIND       PRES   REMARKS
GRAND ISLAND   SUNNY     71  61  70 N6        30.12S
AURORA         SUNNY     69  64  84 N5        30.11S
HASTINGS       SUNNY     72  64  76 N7        30.11F
KEARNEY *      SUNNY     75  63  64 NW6       30.12S
YORK           PTSUNNY   64  61  88 NW3       30.11R
$$

NEZ011>018-030>034-042>045-291800-
NORTHEAST NEBRASKA

CITY           SKY/WX    TMP DP  RH WIND       PRES   REMARKS
NORFOLK        SUNNY     69  61  75 NW5       30.10R
ALBION         SUNNY     70  65  85 NW3       30.11S
BLAIR          CLOUDY    62  59  91 N7        30.09R
COLUMBUS *     MOSUNNY   66  57  72 W3        30.10S
FREMONT        CLOUDY    64  60  86 N3        30.10S
TEKAMAH        CLOUDY    64  60  87 N7        30.10R
$$

NEZ050>053-065>068-078-088>093-291800-
SOUTHEAST NEBRASKA

CITY           SKY/WX    TMP DP  RH WIND       PRES   REMARKS
LINCOLN        CLOUDY    65  61  87 N7        30.10S
OMAHA EPPLEY   CLOUDY    64  59  83 N7        30.09R
BEATRICE       CLOUDY    64  61  90 N6        30.09R
FALLS CITY     CLOUDY    66  63  90 N8        30.06R
NEBRASKA CITY  CLOUDY    63  62  98 N7        30.08S FOG
PLATTSMOUTH    CLOUDY    63  60  90 N6        30.08S FOG
$$

NEZ044-045-051>053-067-291800-
OMAHA AREA

CITY           SKY/WX    TMP DP  RH WIND       PRES   REMARKS
OMAHA EPPLEY   CLOUDY    64  59  83 N7        30.09R
BLAIR          CLOUDY    62  59  91 N7        30.09R
FREMONT        CLOUDY    64  60  86 N3        30.10S
OFFUTT AFB     CLOUDY    63  59  88 N7        30.08R FOG
PLATTSMOUTH    CLOUDY    63  60  90 N6        30.08S FOG
WAHOO          CLOUDY    64  60  88 N8        30.10R
$$




USA.gov is the U.S. government's official web portal to all federal, state and local government web resources and services.